This is the latest recevied weather packets stored in our database for station/object W5DNT. If no packets are shown the sender has not sent any weather packets the latest 10 day(s).
| Time | Temp. | Humidity | Pressure | Rain* | Wind** | Luminosity | Snow |
|---|---|---|---|---|---|---|---|
| 1788382826 | 38.33° C | 38% | 1009.8 hPa | 0 mm | - | - | - |
| 1788381938 | 38.33° C | 38% | 1010 hPa | 0 mm | - | - | - |
| 1788381021 | 38.33° C | 40% | 1010.1 hPa | 0 mm | - | - | - |
| 1788380118 | 38.33° C | 40% | 1010.2 hPa | 0 mm | - | - | - |
| 1788379220 | 37.78° C | 41% | 1010.6 hPa | 0 mm | - | - | - |
| 1788378311 | 37.78° C | 41% | 1010.9 hPa | 0 mm | - | - | - |
| 1788377405 | 37.22° C | 43% | 1011.3 hPa | 0 mm | - | - | - |
| 1788376502 | 36.67° C | 43% | 1011.5 hPa | 0 mm | - | - | - |
| 1788375662 | 36.67° C | 45% | 1011.8 hPa | 0 mm | - | - | - |
| 1788374755 | 36.67° C | 45% | 1012 hPa | 0 mm | - | - | - |
| 1788373861 | 36.67° C | 44% | 1012.1 hPa | 0 mm | - | - | - |
| 1788372949 | 35.56° C | 46% | 1012.5 hPa | 0 mm | - | - | - |
| 1788372047 | 36.11° C | 49% | 1012.8 hPa | 0 mm | - | - | - |
| 1788371142 | 35.56° C | 50% | 1013 hPa | 0 mm | - | - | - |
| 1788370253 | 35.56° C | 50% | 1013.3 hPa | 0 mm | - | - | - |
| 1788369337 | 35.56° C | 51% | 1013.4 hPa | 0 mm | - | - | - |
| 1788368436 | 35° C | 53% | 1013.8 hPa | 0 mm | - | - | - |
| 1788367531 | 34.44° C | 54% | 1014 hPa | 0 mm | - | - | - |
| 1788366627 | 33.89° C | 56% | 1014.1 hPa | 0 mm | - | - | - |
| 1788365723 | 33.33° C | 56% | 1014.3 hPa | 0 mm | - | - | - |
| 1788364821 | 32.78° C | 59% | 1014.3 hPa | 0 mm | - | - | - |
| 1788363919 | 32.78° C | 58% | 1014.3 hPa | 0 mm | - | - | - |
| 1788363015 | 32.22° C | 66% | 1014.4 hPa | 0 mm | - | - | - |
| 1788362111 | 31.11° C | 66% | 1014.5 hPa | 0 mm | - | - | - |
| 1788361207 | 30° C | 69% | 1014.4 hPa | 0 mm | - | - | - |
* Rain latest hour (hover to see other rain measurements)
** Current wind speed in m/s (hover to see current wind gust speed)